[[{"header":{"parameterUnit":"m.s-1","parameterCategory":1,"la1":30.2991,"la2":30.254,"lo1":-89.0895,"lo2":-89.0444,"dy":0.0017,"dx":0.0017,"nx":28,"ny":28,"refTime":"2024-09-03T21:00:00:Z","depth":0,"parameterNumber":2,"parameterNumberName":"U-component_of_WINDS"},"data":[0,0,0,0,0,0,0,0,0,0,0,0,0,0,0,0,0,0,0,0,0,0,0,0,0,0,0,0,0,0,0,0,0,0,0,0,0,0,0,0,0,0,0,0,0,0,0,0,0,0,0,0,0,0,0,0,0,0,-1.4062,-1.4061,0,-1.4009,-1.4009,-1.4008,-1.396,-1.3959,-1.3959,-1.3958,-1.3906,-1.3906,-1.3905,0,0,0,0,0,0,0,0,0,0,0,0,0,-1.4124,-1.4123,-1.4062,-1.4061,-1.406,-1.4009,-1.4009,-1.4008,-1.396,-1.3959,-1.3958,-1.3958,-1.3907,-1.3906,-1.3905,0,0,0,0,0,0,0,0,0,0,0,0,0,-1.4087,-1.4123,-1.4062,-1.403,-1.4027,-1.401,-1.4009,-1.4008,-1.396,-1.3959,-1.3958,-1.3957,-1.3907,-1.3906,-1.3904,-1.3915,0,0,-1.3901,-1.39,0,0,0,0,0,0,0,0,-1.4089,-1.4085,-1.4036,-1.4032,-1.4029,-1.399,-1.4012,-1.3977,-1.396,-1.3985,-1.3958,-1.3957,-1.3935,-1.3931,-1.3924,-1.3912,-1.391,-1.3901,-1.39,-1.3899,-1.3899,0,0,0,0,0,0,0,-1.4092,-1.4087,-1.4041,-1.4035,-1.4031,-1.402,-1.4014,-1.4005,-1.3966,-1.3983,-1.398,-1.3974,-1.3933,-1.3925,-1.3922,-1.3909,-1.3901,-1.39,-1.3899,-1.3898,-1.3909,-1.391,0,0,0,0,0,0,-1.4099,-1.4089,-1.4043,-1.4039,-1.4057,-1.402,-1.4013,-1.4003,-1.3966,-1.3959,-1.3975,-1.3972,-1.3927,-1.3924,-1.392,-1.3932,-1.3899,-1.3898,-1.3897,-1.3908,-1.3909,-1.391,0,0,0,0,0,0,-1.41,-1.4095,-1.4045,-1.4063,-1.4056,-1.4019,-1.401,-1.4003,-1.3995,-1.3959,-1.3953,-1.3973,-1.3927,-1.3922,-1.3917,-1.393,-1.3898,-1.3897,-1.3906,-1.3908,-1.3909,-1.3956,0,0,0,0,0,0,-1.4102,-1.4096,-1.4098,-1.4064,-1.4055,-1.4042,-1.401,-1.4002,-1.3992,-1.3988,-1.3956,-1.395,-1.3926,-1.3919,-1.3916,-1.3928,-1.3896,-1.3905,-1.3907,-1.3909,-1.3953,-1.3959,-1.3964,0,0,0,0,0,-1.4105,-1.4113,-1.4098,-1.4093,-1.4057,-1.4042,-1.4038,-1.4008,-1.3994,-1.3997,-1.3975,-1.3951,-1.3929,-1.3919,-1.3915,-1.3927,-1.3904,-1.3907,-1.3909,-1.3951,-1.3958,-1.3964,0,0,0,0,0,0,-1.4149,-1.4107,-1.4091,-1.4088,-1.4069,-1.4034,-1.4037,-1.4016,-1.4001,-1.3998,-1.3963,-1.3956,-1.3957,-1.3941,-1.3931,-1.3937,-1.3914,-1.3915,-1.3947,-1.3953,-1.3959,-1.3963,-1.3895,0,0,0,0,0,-1.4159,-1.4149,-1.4114,-1.4114,-1.4106,-1.4073,-1.4066,-1.4045,-1.4024,-1.4016,-1.3993,-1.3975,-1.3964,-1.3958,-1.3945,-1.3951,-1.3945,-1.3957,-1.3962,-1.3967,-1.3969,-1.3974,-1.398,-1.3917,-1.3917,-1.3917,0,0,-1.4178,-1.4154,-1.415,-1.4123,-1.4106,-1.4099,-1.4067,-1.4059,-1.4054,-1.4015,-1.401,-1.3993,-1.3971,-1.3972,-1.3972,-1.3959,-1.3985,-1.397,-1.3973,-1.3973,-1.3977,-1.3983,-1.3989,-1.3919,-1.3919,-1.3918,0,0,-1.421,-1.419,-1.419,-1.4174,-1.4149,-1.4128,-1.4128,-1.4097,-1.4085,-1.4079,-1.4051,-1.4045,-1.4026,-1.4012,-1.4003,-1.4034,-1.4013,-1.4031,-1.4059,-1.4065,-1.407,-1.4074,-1.4088,-1.4094,-1.4033,-1.4033,-1.4033,0,-1.4237,-1.4224,-1.4193,-1.4188,-1.4179,-1.4143,-1.4145,-1.4131,-1.4104,-1.4099,-1.4085,-1.4063,-1.4045,-1.4045,-1.4053,-1.4045,-1.4047,-1.4035,-1.4072,-1.4076,-1.4079,-1.4092,-1.4097,-1.4036,-1.4035,-1.4035,-1.4035,0,-1.4261,-1.4252,-1.4256,-1.4231,-1.4222,-1.422,-1.4191,-1.4185,-1.4167,-1.4148,-1.4145,-1.4122,-1.4107,-1.4105,-1.4086,-1.4103,-1.4097,-1.4078,-1.4054,-1.4088,-1.41,-1.4105,-1.4039,-1.4038,-1.4038,-1.4037,0,0,-1.4317,-1.4278,-1.428,-1.427,-1.4241,-1.4235,-1.4234,-1.4218,-1.4216,-1.4199,-1.4199,-1.4186,-1.4169,-1.4159,-1.4138,-1.4143,-1.4174,-1.4124,-1.4123,-1.4136,-1.4195,-1.4211,-1.4217,-1.4159,-1.416,-1.4161,-1.4198,0,-1.4346,-1.434,-1.4314,-1.4317,-1.4311,-1.4279,-1.4278,-1.4262,-1.4246,-1.4239,-1.4221,-1.4213,-1.419,-1.4185,-1.4188,-1.4169,-1.4185,-1.4166,-1.4161,-1.4162,-1.4169,-1.4223,-1.4238,-1.4274,-1.4202,-1.4203,-1.4203,0,-1.4378,-1.4365,-1.4367,-1.4343,-1.4339,-1.4339,-1.4325,-1.4318,-1.4301,-1.4289,-1.4279,-1.4257,-1.4256,-1.4234,-1.4234,-1.4222,-1.4219,-1.421,-1.421,-1.421,-1.4185,-1.4226,-1.4285,-1.4291,-1.421,-1.4209,-1.4209,0,-1.4422,-1.4405,-1.4405,-1.4397,-1.4368,-1.4369,-1.4357,-1.4338,-1.4332,-1.4321,-1.4317,-1.4306,-1.43,-1.4293,-1.427,-1.4255,-1.4274,-1.4248,-1.4266,-1.4267,-1.4272,-1.4272,-1.4334,-1.4267,-1.4267,-1.4267,-1.4267,0,-1.4458,-1.4461,-1.4425,-1.4425,-1.443,-1.4401,-1.4406,-1.4391,-1.4376,-1.4375,-1.4346,-1.4346,-1.4314,-1.4311,-1.4293,-1.4299,-1.4295,-1.4287,-1.4283,-1.4291,-1.4292,-1.4289,-1.4287,-1.4268,-1.4268,-1.4268,-1.4268,0,-1.4508,-1.4483,-1.4482,-1.4455,-1.4449,-1.4454,-1.4432,-1.4432,-1.4415,-1.4414,-1.4412,-1.4385,-1.4381,-1.4357,-1.4346,-1.4334,-1.4347,-1.4336,-1.4353,-1.435,-1.437,-1.437,-1.4433,-1.4441,-1.4368,-1.4368,-1.4369,0,-1.4533,-1.4535,-1.4509,-1.4507,-1.4496,-1.4491,-1.4486,-1.4459,-1.4454,-1.4437,-1.4441,-1.4434,-1.4427,-1.4422,-1.4402,-1.4395,-1.4386,-1.4408,-1.4384,-1.4394,-1.4389,-1.439,-1.4392,-1.4414,-1.4415,-1.4415,-1.4416,0,-1.4581,-1.4569,-1.4562,-1.4552,-1.4547,-1.4537,-1.4526,-1.4526,-1.4496,-1.4493,-1.4488,-1.4483,-1.4474,-1.4469,-1.4459,-1.4448,-1.4429,-1.4424,-1.4428,-1.4437,-1.4448,-1.4445,-1.4369,-1.4423,-1.4422,-1.4422,-1.4421,-1.4421,-1.462,-1.4622,-1.4606,-1.46,-1.4589,-1.4581,-1.4581,-1.4565,-1.456,-1.4551,-1.4535,-1.4534,-1.452,-1.4505,-1.4497,-1.4496,-1.4484,-1.449,-1.4491,-1.4494,-1.4499,-1.4447,-1.4494,-1.4494,-1.4494,-1.4494,-1.4493,0,-1.4669,-1.4658,-1.4652,-1.4639,-1.4636,-1.4617,-1.4605,-1.4604,-1.4603,-1.4591,-1.4586,-1.4583,-1.4579,-1.456,-1.4555,-1.4559,-1.455,-1.4558,-1.4559,-1.4558,-1.4509,-1.4507,-1.4566,-1.4566,-1.4566,-1.4566,-1.4566,-1.4566,-1.4694,-1.4698,-1.4685,-1.4685,-1.4674,-1.4672,-1.4668,-1.4661,-1.4652,-1.465,-1.4646,-1.4634,-1.4621,-1.4616,-1.4612,-1.4607,-1.4608,-1.462,-1.4612,-1.4567,-1.456,-1.4554,-1.4552,-1.462,-1.462,-1.4661,-1.4662,-1.4662]},{"header":{"parameterUnit":"m.s-1","parameterCategory":1,"la1":30.2991,"la2":30.254,"lo1":-89.0895,"lo2":-89.0444,"dy":0.0017,"dx":0.0017,"nx":28,"ny":28,"refTime":"2024-09-03T21:00:00:Z","depth":0,"parameterNumber":3,"parameterNumberName":"V-component_of_WINDS"},"data":[0,0,0,0,0,0,0,0,0,0,0,0,0,0,0,0,0,0,0,0,0,0,0,0,0,0,0,0,0,0,0,0,0,0,0,0,0,0,0,0,0,0,0,0,0,0,0,0,0,0,0,0,0,0,0,0,0,0,2.2444,2.2444,0,2.2468,2.2468,2.2468,2.2511,2.2512,2.2512,2.2513,2.2536,2.2535,2.2535,0,0,0,0,0,0,0,0,0,0,0,0,0,2.2433,2.2433,2.2444,2.2444,2.2444,2.2468,2.2468,2.2468,2.2511,2.2512,2.2513,2.2513,2.2536,2.2535,2.2535,0,0,0,0,0,0,0,0,0,0,0,0,0,2.2445,2.2433,2.2444,2.2468,2.2471,2.2468,2.2468,2.2468,2.251,2.2512,2.2513,2.2514,2.2536,2.2535,2.2535,2.2509,0,0,2.2534,2.2534,0,0,0,0,0,0,0,0,2.2445,2.2446,2.2464,2.2467,2.2469,2.2488,2.2473,2.2482,2.251,2.2495,2.2513,2.2515,2.2518,2.252,2.2521,2.251,2.2511,2.2534,2.2534,2.2534,2.2534,0,0,0,0,0,0,0,2.2444,2.2445,2.2453,2.2465,2.2468,2.2478,2.2481,2.2474,2.25,2.2497,2.25,2.2502,2.252,2.2522,2.2522,2.2512,2.2534,2.2534,2.2534,2.2534,2.2479,2.2478,0,0,0,0,0,0,2.2439,2.2444,2.2452,2.2454,2.246,2.2477,2.248,2.248,2.25,2.2504,2.2501,2.2504,2.2521,2.2522,2.2523,2.2493,2.2534,2.2534,2.2534,2.2481,2.2479,2.2478,0,0,0,0,0,0,2.2439,2.244,2.2452,2.245,2.2452,2.2476,2.2476,2.248,2.2482,2.2503,2.2508,2.2498,2.2522,2.2524,2.2512,2.2494,2.2534,2.2534,2.2482,2.248,2.2478,2.2432,0,0,0,0,0,0,2.2439,2.2439,2.243,2.2449,2.2452,2.244,2.2475,2.248,2.2482,2.2486,2.2502,2.2505,2.2523,2.2512,2.2512,2.2494,2.2533,2.2484,2.2481,2.2479,2.2435,2.2429,2.2423,0,0,0,0,0,2.2438,2.2416,2.2429,2.243,2.2441,2.2439,2.2441,2.2462,2.248,2.247,2.2484,2.2505,2.2497,2.2511,2.2511,2.2493,2.2485,2.2482,2.2479,2.2438,2.243,2.2423,0,0,0,0,0,0,2.2393,2.2419,2.2434,2.2418,2.2426,2.2446,2.2435,2.2454,2.2457,2.246,2.2487,2.249,2.2475,2.2483,2.2499,2.2468,2.2494,2.2491,2.2463,2.2455,2.2449,2.2446,2.2533,0,0,0,0,0,2.2382,2.2379,2.2401,2.2385,2.2388,2.2411,2.2411,2.2427,2.2437,2.244,2.2453,2.2461,2.246,2.2459,2.2459,2.2438,2.2441,2.2425,2.2419,2.2414,2.241,2.2398,2.239,2.2468,2.2468,2.2468,0,0,2.2357,2.2371,2.2367,2.2376,2.2384,2.238,2.2413,2.2407,2.2404,2.2439,2.2428,2.2439,2.2449,2.2432,2.2425,2.2439,2.239,2.241,2.2406,2.2405,2.2394,2.2386,2.238,2.2466,2.2466,2.2467,0,0,2.2309,2.232,2.2307,2.2315,2.2327,2.2343,2.234,2.2358,2.2365,2.2356,2.2382,2.2378,2.2377,2.2383,2.2385,2.2341,2.2359,2.2341,2.2308,2.2295,2.2289,2.2283,2.2265,2.2258,2.2337,2.2337,2.2337,0,2.2277,2.2271,2.2297,2.2289,2.2292,2.2325,2.2311,2.2317,2.2329,2.2329,2.2345,2.2343,2.2353,2.2336,2.2326,2.2328,2.2323,2.2337,2.2288,2.2283,2.2278,2.2261,2.2254,2.2334,2.2335,2.2335,2.2335,0,2.223,2.2226,2.2213,2.2224,2.2226,2.2215,2.2238,2.2237,2.2253,2.2267,2.2256,2.2269,2.2272,2.227,2.2286,2.2256,2.2264,2.2283,2.2309,2.2268,2.2252,2.2245,2.2331,2.2332,2.2332,2.2333,0,0,2.2151,2.2178,2.2173,2.2177,2.2194,2.2191,2.2182,2.2186,2.2183,2.219,2.2182,2.218,2.2198,2.2201,2.2219,2.2208,2.2169,2.2229,2.2229,2.2215,2.2134,2.2117,2.2109,2.2183,2.2182,2.2181,2.2132,0,2.2105,2.209,2.2114,2.2093,2.2089,2.2121,2.2112,2.2121,2.2134,2.2132,2.2146,2.2143,2.2169,2.2171,2.2162,2.2176,2.2153,2.218,2.2173,2.2172,2.2166,2.2101,2.2083,2.2036,2.2126,2.2125,2.2125,0,2.2048,2.2053,2.2032,2.205,2.2049,2.2041,2.2045,2.2044,2.2054,2.2064,2.2068,2.2089,2.208,2.2108,2.2095,2.2113,2.2112,2.2118,2.2117,2.2114,2.2143,2.2093,2.2022,2.2013,2.2116,2.2116,2.2117,0,2.199,2.1992,2.1979,2.1982,2.2003,2.1997,2.2005,2.2017,2.2018,2.2022,2.2022,2.2026,2.2027,2.2029,2.2049,2.2068,2.2033,2.2063,2.2039,2.2038,2.2027,2.2027,2.1951,2.2032,2.2032,2.2032,2.2032,0,2.1933,2.1918,2.1953,2.1944,2.1928,2.1956,2.1939,2.1951,2.1961,2.1955,2.1984,2.1978,2.2007,2.2004,2.202,2.2005,2.2007,2.2013,2.2017,2.2008,2.2007,2.2005,2.2008,2.203,2.2031,2.2031,2.2032,0,2.1864,2.1886,2.1874,2.1896,2.1901,2.1887,2.1905,2.1898,2.1914,2.1906,2.1905,2.1929,2.1926,2.1948,2.195,2.1961,2.1937,2.1949,2.1933,2.1935,2.1909,2.191,2.1826,2.1816,2.1907,2.1906,2.1905,0,2.1824,2.1813,2.1834,2.1832,2.1839,2.1836,2.1837,2.1865,2.1864,2.1876,2.1866,2.1867,2.1867,2.1862,2.1878,2.1879,2.1889,2.186,2.1889,2.188,2.1884,2.1883,2.1881,2.1852,2.1851,2.185,2.1849,0,2.1751,2.1763,2.1764,2.1768,2.1768,2.1772,2.1779,2.1776,2.1805,2.1803,2.1801,2.1802,2.1804,2.1802,2.1807,2.1815,2.1836,2.1841,2.1835,2.1824,2.1814,2.1816,2.1913,2.1841,2.1842,2.1843,2.1843,2.1844,2.1693,2.1685,2.1698,2.1697,2.1705,2.171,2.1704,2.1719,2.1718,2.1722,2.1739,2.1733,2.1744,2.1752,2.1758,2.1753,2.1767,2.1759,2.1756,2.1753,2.1747,2.1818,2.1755,2.1755,2.1755,2.1755,2.1756,0,2.1619,2.1629,2.1629,2.1636,2.1636,2.1658,2.1667,2.1664,2.1659,2.1668,2.1668,2.1665,2.1664,2.1682,2.1683,2.1676,2.1685,2.1675,2.1673,2.1674,2.1736,2.174,2.1667,2.1667,2.1667,2.1667,2.1667,2.1667,2.158,2.1565,2.1579,2.1569,2.158,2.1574,2.1577,2.1582,2.1589,2.1584,2.1584,2.1596,2.1608,2.161,2.161,2.1615,2.1612,2.1597,2.1605,2.1662,2.167,2.1678,2.1682,2.1598,2.1598,2.1544,2.1543,2.1543]}]]